KD5NDU-15 Weather Reports


time (UTC)temp
C
wind
direction
speed
KPH
gust
KPH
rain 1hr
cm
rain 24hr
cm
rain mn
cm
humidity
%
barometer
mb
20260901070139 24 113 0.0 1.6 0.00 0.00 0.00 90 1017.4
20260901065639 24 113 0.0 1.6 0.00 0.00 0.00 89 1017.5
20260901065139 24 113 0.0 0.0 0.00 0.00 0.00 89 1017.5
20260901064639 25 113 0.0 0.0 0.00 0.00 0.00 88 1017.6
20260901064139 25 113 0.0 1.6 0.00 0.00 0.00 87 1017.6
20260901063639 25 113 0.0 1.6 0.00 0.00 0.00 87 1017.6
20260901063139 25 113 1.6 3.2 0.00 0.00 0.00 87 1017.7
20260901062639 25 59 1.6 3.2 0.00 0.00 0.00 87 1017.7
20260901062139 25 85 1.6 4.8 0.00 0.00 0.00 87 1017.7
20260901061639 25 115 1.6 4.8 0.00 0.00 0.00 86 1017.7
20260901061139 25 93 1.6 3.2 0.00 0.00 0.00 86 1017.6
20260901060639 25 96 1.6 4.8 0.00 0.00 0.00 86 1017.6
20260901060139 25 85 1.6 4.8 0.00 0.00 0.00 87 1017.6
20260901055639 25 98 0.0 4.8 0.00 0.00 0.00 87 1017.4
20260901055139 25 74 0.0 3.2 0.00 0.00 0.00 87 1017.4
20260901054639 25 72 0.0 0.0 0.00 0.00 0.00 87 1017.6
20260901054139 25 143 0.0 0.0 0.00 0.00 0.00 87 1017.6
20260901053639 25 143 0.0 3.2 0.00 0.00 0.00 87 1017.6
20260901053139 25 143 0.0 0.0 0.00 0.00 0.00 87 1017.6
20260901052639 25 143 0.0 1.6 0.00 0.00 0.00 86 1017.6
20260901052139 25 143 0.0 0.0 0.00 0.00 0.00 86 1017.7
20260901051639 25 143 0.0 3.2 0.00 0.00 0.00 85 1017.6
20260901051139 25 145 0.0 3.2 0.00 0.00 0.00 86 1017.7
20260901050639 25 148 0.0 1.6 0.00 0.00 0.00 85 1017.5
20260901050139 25 148 0.0 0.0 0.00 0.00 0.00 85 1017.6
20260901045639 25 148 0.0 0.0 0.00 0.00 0.00 85 1017.5
20260901045139 25 148 0.0 0.0 0.00 0.00 0.00 85 1017.4
20260901044639 26 148 0.0 0.0 0.00 0.00 0.00 84 1017.5
20260901044139 26 148 0.0 0.0 0.00 0.00 0.00 84 1017.5
20260901043639 26 148 0.0 0.0 0.00 0.00 0.00 83 1017.4
20260901043139 26 148 0.0 1.6 0.00 0.00 0.00 83 1017.4
20260901042639 26 148 0.0 1.6 0.00 0.00 0.00 82 1017.5
20260901042139 26 148 0.0 3.2 0.00 0.00 0.00 82 1017.5
20260901041639 26 161 0.0 3.2 0.00 0.00 0.00 82 1017.4
20260901041139 27 161 0.0 1.6 0.00 0.00 0.00 80 1017.6
20260901040639 27 161 0.0 1.6 0.00 0.00 0.00 80 1017.5
20260901040139 27 141 1.6 3.2 0.00 0.00 0.00 79 1017.4
20260901035639 27 167 1.6 4.8 0.00 0.00 0.00 79 1017.5
20260901035139 27 155 1.6 4.8 0.00 0.00 0.00 78 1017.5
20260901034639 27 153 1.6 3.2 0.00 0.00 0.00 78 1017.6
20260901034139 27 151 1.6 6.4 0.00 0.00 0.00 77 1017.6
20260901033639 27 150 1.6 4.8 0.00 0.00 0.00 77 1017.6
20260901033139 27 102 1.6 4.8 0.00 0.00 0.00 77 1017.6
20260901032639 27 146 1.6 4.8 0.00 0.00 0.00 77 1017.5
20260901032139 27 107 1.6 4.8 0.00 0.00 0.00 77 1017.6
20260901031639 27 106 1.6 4.8 0.00 0.00 0.00 78 1017.7
20260901031139 27 105 0.0 6.4 0.00 0.00 0.00 78 1017.6
20260901030639 27 149 0.0 4.8 0.00 0.00 0.00 78 1017.6
20260901030139 28 168 1.6 3.2 0.00 0.00 0.00 77 1017.7
20260901025639 28 168 0.0 3.2 0.00 0.00 0.00 77 1017.7
20260901025139 28 168 0.0 3.2 0.00 0.00 0.00 77 1017.6
20260901024639 28 168 0.0 1.6 0.00 0.00 0.00 76 1017.7
20260901024139 28 168 0.0 3.2 0.00 0.00 0.00 76 1017.7
20260901023639 28 170 1.6 4.8 0.00 0.00 0.00 75 1017.6
20260901023139 28 194 0.0 3.2 0.00 0.00 0.00 75 1017.5
20260901022639 28 188 0.0 1.6 0.00 0.00 0.00 74 1017.5
20260901022139 29 188 0.0 0.0 0.00 0.00 0.00 74 1017.5
20260901021639 29 188 1.6 3.2 0.00 0.00 0.00 73 1017.6
20260901021139 29 171 1.6 4.8 0.00 0.00 0.00 73 1017.5
20260901020639 29 195 1.6 4.8 0.00 0.00 0.00 73 1017.6
20260901020139 29 193 3.2 6.4 0.00 0.00 0.00 73 1017.6
20260901015639 29 198 1.6 3.2 0.00 0.00 0.00 73 1017.5
20260901015139 29 201 0.0 3.2 0.00 0.00 0.00 73 1017.4
20260901014639 29 201 0.0 3.2 0.00 0.00 0.00 73 1017.2
20260901014139 30 203 0.0 0.0 0.00 0.00 0.00 72 1017.2
20260901013639 30 203 1.6 3.2 0.00 0.00 0.00 72 1017.1
20260901013139 30 203 1.6 3.2 0.00 0.00 0.00 71 1017.1
20260901012639 30 203 0.0 4.8 0.00 0.00 0.00 71 1017.1
20260901012139 30 202 0.0 0.0 0.00 0.00 0.00 71 1017.1
20260901011639 30 202 0.0 0.0 0.00 0.00 0.00 71 1017.1
20260901011139 30 202 0.0 0.0 0.00 0.00 0.00 70 1017.1
20260901010639 30 202 0.0 0.0 0.00 0.00 0.00 69 1017.1
20260901010139 30 202 0.0 1.6 0.00 0.00 0.00 69 1017.0
20260901005639 30 202 0.0 3.2 0.00 0.00 0.00 68 1017.1
20260901005139 31 202 0.0 1.6 0.00 0.00 0.00 67 1017.0
20260901004639 31 202 0.0 1.6 0.00 0.00 0.00 67 1017.0
20260901004139 31 202 0.0 1.6 0.00 0.00 0.00 66 1017.0
20260901003639 31 202 0.0 1.6 0.00 0.00 0.00 66 1016.9
20260901003139 31 201 0.0 3.2 0.00 0.00 0.00 65 1016.8
20260901002639 31 201 1.6 4.8 0.00 0.00 0.00 64 1016.9
20260901002139 31 211 1.6 4.8 0.00 0.00 0.00 63 1016.8
20260901001639 32 210 1.6 4.8 0.00 0.00 0.00 62 1016.7
20260901001139 32 198 0.0 3.2 0.00 0.00 0.00 61 1016.8
20260901000639 32 164 1.6 3.2 0.00 0.00 0.00 60 1016.8
20260901000139 32 156 1.6 3.2 0.00 0.00 0.00 59 1016.8
20260831235639 32 155 1.6 3.2 0.00 0.00 0.00 60 1016.9
20260831235139 33 205 1.6 6.4 0.00 0.00 0.00 59 1016.7
20260831234639 33 187 0.0 3.2 0.00 0.00 0.00 59 1016.7
20260831234139 33 187 0.0 1.6 0.00 0.00 0.00 58 1016.7
20260831233639 33 187 1.6 3.2 0.00 0.00 0.00 58 1016.7
20260831233139 33 192 1.6 3.2 0.00 0.00 0.00 57 1016.7
20260831232639 34 191 1.6 4.8 0.00 0.00 0.00 58 1016.6
20260831232139 34 175 1.6 4.8 0.00 0.00 0.00 57 1016.6
20260831231639 34 145 1.6 6.4 0.00 0.00 0.00 57 1016.7
20260831231139 34 124 3.2 6.4 0.00 0.00 0.00 58 1016.7
20260831230639 34 160 3.2 6.4 0.00 0.00 0.00 57 1016.8
20260831230139 34 212 3.2 6.4 0.00 0.00 0.00 57 1016.7
20260831225639 34 154 4.8 8.0 0.00 0.00 0.00 58 1016.8
20260831225139 35 193 3.2 9.7 0.00 0.00 0.00 57 1016.7
20260831224639 35 180 1.6 6.4 0.00 0.00 0.00 58 1016.7
20260831224139 35 151 1.6 6.4 0.00 0.00 0.00 57 1016.7
20260831223639 35 88 1.6 9.7 0.00 0.00 0.00 58 1016.7
20260831223139 35 203 1.6 6.4 0.00 0.00 0.00 58 1016.7
20260831222639 35 165 3.2 6.4 0.00 0.00 0.00 58 1016.8
20260831222139 35 88 1.6 8.0 0.00 0.00 0.00 57 1016.7
20260831221639 35 183 3.2 4.8 0.00 0.00 0.00 57 1016.7
20260831221139 35 181 4.8 6.4 0.00 0.00 0.00 56 1016.8
20260831220639 35 75 3.2 8.0 0.00 0.00 0.00 57 1016.9
20260831220139 35 86 1.6 9.7 0.00 0.00 0.00 57 1016.9
20260831215639 35 159 1.6 4.8 0.00 0.00 0.00 59 1016.9
20260831215139 34 106 3.2 6.4 0.00 0.00 0.00 57 1017.0
20260831214639 35 128 3.2 8.0 0.00 0.00 0.00 58 1017.0
20260831214139 35 147 3.2 9.7 0.00 0.00 0.00 57 1017.0
20260831213639 35 224 3.2 8.0 0.00 0.00 0.00 56 1017.0
20260831213139 35 183 3.2 8.0 0.00 0.00 0.00 55 1017.0
20260831212639 35 211 3.2 6.4 0.00 0.00 0.00 54 1017.0
20260831212139 35 223 3.2 6.4 0.00 0.00 0.00 55 1017.0
20260831211640 35 251 4.8 8.0 0.00 0.00 0.00 54 1017.1
20260831211139 36 211 4.8 11.3 0.00 0.00 0.00 53 1017.3
20260831210640 36 202 4.8 11.3 0.00 0.00 0.00 53 1017.4
20260831210140 36 251 3.2 9.7 0.00 0.00 0.00 54 1017.4
20260831205640 35 206 1.6 8.0 0.00 0.00 0.00 54 1017.3
20260831205140 35 231 3.2 4.8 0.00 0.00 0.00 55 1017.4
20260831204640 35 127 3.2 4.8 0.00 0.00 0.00 55 1017.4
20260831204140 34 201 3.2 6.4 0.00 0.00 0.00 57 1017.4
20260831203640 34 191 3.2 9.7 0.00 0.00 0.00 58 1017.4
20260831203140 33 193 3.2 8.0 0.00 0.00 0.00 58 1017.3
20260831202640 33 232 1.6 6.4 0.00 0.00 0.00 58 1017.4
20260831202140 33 210 1.6 4.8 0.00 0.00 0.00 60 1017.5
20260831201640 33 209 1.6 3.2 0.00 0.00 0.00 60 1017.6
20260831201140 33 208 1.6 3.2 0.00 0.00 0.00 62 1017.6
20260831200640 33 207 1.6 4.8 0.00 0.00 0.00 60 1017.6
20260831200140 34 61 0.0 1.6 0.00 0.00 0.00 60 1017.8
20260831195640 35 61 1.6 3.2 0.00 0.00 0.00 58 1017.9
20260831195140 35 61 0.0 1.6 0.00 0.00 0.00 63 1018.0
20260831194640 35 61 0.0 3.2 0.00 0.00 0.00 62 1018.0
20260831194140 34 61 0.0 1.6 0.00 0.00 0.00 62 1018.1
20260831193640 33 62 0.0 3.2 0.00 0.00 0.00 61 1018.1
20260831193140 33 60 0.0 3.2 0.00 0.00 0.00 61 1018.2
20260831192640 33 60 1.6 3.2 0.00 0.00 0.00 63 1018.1
20260831192140 33 61 1.6 3.2 0.00 0.00 0.00 63 1018.2
20260831191640 33 81 1.6 4.8 0.00 0.00 0.00 63 1018.2
20260831191140 33 153 1.6 6.4 0.00 0.00 0.00 63 1018.3
20260831190640 33 154 3.2 4.8 0.00 0.00 0.00 63 1018.3
20260831190140 33 181 1.6 6.4 0.00 0.00 0.00 63 1018.3
20260831185640 33 190 1.6 4.8 0.00 0.00 0.00 64 1018.4
20260831185140 33 167 1.6 6.4 0.00 0.00 0.00 64 1018.3
20260831184640 33 149 3.2 4.8 0.00 0.00 0.00 64 1018.5
20260831184140 33 162 1.6 6.4 0.00 0.00 0.00 63 1018.4
20260831183640 33 210 0.0 4.8 0.00 0.00 0.00 63 1018.6
20260831183140 33 190 0.0 3.2 0.00 0.00 0.00 64 1018.7
20260831182640 33 193 1.6 3.2 0.00 0.00 0.00 63 1018.7
20260831182140 33 193 1.6 3.2 0.00 0.00 0.00 64 1018.7
20260831181640 33 193 3.2 4.8 0.00 0.00 0.00 63 1018.8
20260831181140 33 207 3.2 8.0 0.00 0.00 0.00 63 1018.9
20260831180640 33 181 4.8 6.4 0.00 0.00 0.00 62 1019.0
20260831180140 33 182 6.4 11.3 0.00 0.00 0.00 62 1019.1
20260831175640 33 176 4.8 12.9 0.00 0.00 0.00 62 1019.1
20260831175140 33 192 3.2 11.3 0.00 0.00 0.00 63 1019.2
20260831174640 33 293 4.8 8.0 0.00 0.00 0.00 64 1019.4
20260831174140 33 262 6.4 9.7 0.00 0.00 0.00 66 1019.3
20260831173640 33 250 6.4 17.7 0.00 0.00 0.00 63 1019.4
20260831173140 34 236 4.8 12.9 0.00 0.00 0.00 62 1019.6
20260831172640 33 280 4.8 9.7 0.00 0.00 0.00 65 1019.5
20260831172140 33 194 3.2 9.7 0.00 0.00 0.00 64 1019.5
20260831171640 32 176 3.2 6.4 0.00 0.00 0.00 66 1019.6
20260831171140 32 152 3.2 6.4 0.00 0.00 0.00 66 1019.6
20260831170640 32 212 1.6 8.0 0.00 0.00 0.00 66 1019.8
20260831170140 32 245 1.6 3.2 0.00 0.00 0.00 67 1019.9
20260831165640 32 246 1.6 4.8 0.00 0.00 0.00 66 1020.0
20260831165140 32 248 0.0 4.8 0.00 0.00 0.00 67 1020.0
20260831164640 32 249 0.0 3.2 0.00 0.00 0.00 68 1020.0
20260831164140 32 249 1.6 3.2 0.00 0.00 0.00 70 1020.0
20260831163640 32 205 1.6 3.2 0.00 0.00 0.00 69 1020.1
20260831163140 32 206 3.2 6.4 0.00 0.00 0.00 70 1020.1
20260831162640 32 174 4.8 8.0 0.00 0.00 0.00 69 1020.1
20260831162140 32 234 4.8 9.7 0.00 0.00 0.00 69 1020.2
20260831161640 32 256 4.8 12.9 0.00 0.00 0.00 68 1020.1
20260831161140 32 186 6.4 11.3 0.00 0.00 0.00 67 1020.1
20260831160640 32 245 6.4 14.5 0.00 0.00 0.00 67 1020.2
20260831160140 32 168 6.4 14.5 0.00 0.00 0.00 66 1020.2
20260831155640 32 214 6.4 12.9 0.00 0.00 0.00 67 1020.2
20260831155140 32 226 4.8 12.9 0.00 0.00 0.00 69 1020.3
20260831154640 32 226 4.8 8.0 0.00 0.00 0.00 70 1020.2
20260831154140 32 251 4.8 9.7 0.00 0.00 0.00 69 1020.3
20260831153640 32 252 4.8 12.9 0.00 0.00 0.00 69 1020.3
20260831153140 32 226 3.2 8.0 0.00 0.00 0.00 68 1020.1
20260831152640 32 229 1.6 6.4 0.00 0.00 0.00 69 1020.2
20260831152140 32 262 3.2 8.0 0.00 0.00 0.00 70 1020.1
20260831151640 31 254 4.8 11.3 0.00 0.00 0.00 72 1020.1
20260831151140 31 214 3.2 9.7 0.00 0.00 0.00 71 1020.0
20260831150640 31 247 3.2 8.0 0.00 0.00 0.00 72 1020.1
20260831150140 31 202 3.2 6.4 0.00 0.00 0.00 74 1020.0
20260831145640 31 172 4.8 11.3 0.00 0.00 0.00 74 1020.1
20260831145140 31 200 3.2 9.7 0.00 0.00 0.00 73 1020.2
20260831144640 31 233 1.6 9.7 0.00 0.00 0.00 73 1020.0
20260831144140 31 278 1.6 3.2 0.00 0.00 0.00 75 1020.0
20260831143640 31 278 1.6 4.8 0.00 0.00 0.00 75 1019.8
20260831143140 30 288 1.6 3.2 0.00 0.00 0.00 77 1019.8
20260831142640 30 285 1.6 3.2 0.00 0.00 0.00 78 1019.8
20260831142140 30 259 1.6 4.8 0.00 0.00 0.00 78 1019.9
20260831141640 29 242 1.6 6.4 0.00 0.00 0.00 79 1019.9
20260831141140 29 219 3.2 6.4 0.00 0.00 0.00 81 1019.8
20260831140640 28 205 3.2 6.4 0.00 0.00 0.00 81 1019.9
20260831140140 28 207 1.6 6.4 0.00 0.00 0.00 81 1019.9
20260831135640 28 211 3.2 4.8 0.00 0.00 0.00 82 1019.8
20260831135140 28 208 3.2 6.4 0.00 0.00 0.00 81 1019.8
20260831134640 27 193 3.2 4.8 0.00 0.00 0.00 83 1019.9
20260831134140 27 199 3.2 4.8 0.00 0.00 0.00 83 1019.8
20260831133640 27 174 3.2 6.4 0.00 0.00 0.00 84 1019.7
20260831133140 27 188 3.2 6.4 0.00 0.00 0.00 85 1019.7
20260831132640 26 184 1.6 4.8 0.00 0.00 0.00 85 1019.8
20260831132140 26 184 1.6 3.2 0.00 0.00 0.00 86 1019.8
20260831131640 26 179 1.6 4.8 0.00 0.00 0.00 87 1019.6
20260831131140 25 148 0.0 4.8 0.00 0.00 0.00 88 1019.7
20260831130640 25 141 0.0 1.6 0.00 0.00 0.00 90 1019.6
20260831130140 25 141 0.0 3.2 0.00 0.00 0.00 90 1019.5
20260831125640 24 141 0.0 3.2 0.00 0.00 0.00 91 1019.5
20260831125140 23 141 1.6 3.2 0.00 0.00 0.00 92 1019.4
20260831124640 23 140 1.6 4.8 0.00 0.00 0.00 92 1019.3
20260831124140 23 130 1.6 3.2 0.00 0.00 0.00 93 1019.2
20260831123640 23 115 1.6 4.8 0.00 0.00 0.00 93 1019.1
20260831123140 23 154 1.6 8.0 0.00 0.00 0.00 93 1019.1
20260831122640 22 152 1.6 4.8 0.00 0.00 0.00 93 1018.9
20260831122140 22 181 3.2 6.4 0.00 0.00 0.00 94 1018.9
20260831121640 22 135 1.6 6.4 0.00 0.00 0.00 94 1018.8
20260831121140 22 150 1.6 4.8 0.00 0.00 0.00 94 1018.8
20260831120640 21 150 1.6 4.8 0.00 0.00 0.00 94 1018.8
20260831120140 22 149 0.0 3.2 0.00 0.00 0.00 94 1018.7
20260831115640 22 147 0.0 3.2 0.00 0.00 0.00 94 1018.7
20260831115140 22 148 0.0 3.2 0.00 0.00 0.00 94 1018.6
20260831114640 22 148 0.0 3.2 0.00 0.00 0.00 94 1018.6
20260831114140 22 153 0.0 3.2 0.00 0.00 0.00 94 1018.6
20260831113640 22 148 0.0 0.0 0.00 0.00 0.00 94 1018.6
20260831113140 22 148 0.0 0.0 0.00 0.00 0.00 94 1018.4
20260831112640 22 148 0.0 0.0 0.00 0.00 0.00 94 1018.4
20260831112140 21 148 0.0 0.0 0.00 0.00 0.00 94 1018.4
20260831111640 21 148 0.0 0.0 0.00 0.00 0.00 94 1018.3
20260831111140 21 148 0.0 0.0 0.00 0.00 0.00 94 1018.3
20260831110640 22 148 0.0 0.0 0.00 0.00 0.00 94 1018.3
20260831110140 22 148 0.0 0.0 0.00 0.00 0.00 94 1018.3
20260831105640 22 148 0.0 0.0 0.00 0.00 0.00 93 1018.2
20260831105140 22 148 0.0 0.0 0.00 0.00 0.00 94 1018.2
20260831104640 22 148 0.0 3.2 0.00 0.00 0.00 94 1018.3
20260831104140 22 148 1.6 4.8 0.00 0.00 0.00 94 1018.2
20260831103640 22 151 0.0 1.6 0.00 0.00 0.00 93 1018.2
20260831103141 22 138 0.0 0.0 0.00 0.00 0.00 93 1018.1
20260831102640 22 138 0.0 1.6 0.00 0.00 0.00 93 1018.1
20260831102140 22 138 0.0 3.2 0.00 0.00 0.00 94 1018.1
20260831101640 22 174 0.0 0.0 0.00 0.00 0.00 94 1018.2
20260831101140 22 174 0.0 3.2 0.00 0.00 0.00 94 1018.0
20260831100640 22 167 0.0 3.2 0.00 0.00 0.00 94 1018.0
20260831100140 22 167 0.0 3.2 0.00 0.00 0.00 93 1018.0
20260831095640 22 167 0.0 0.0 0.00 0.00 0.00 93 1017.9
20260831095140 22 167 0.0 1.6 0.00 0.00 0.00 94 1017.9
20260831094640 22 167 0.0 1.6 0.00 0.00 0.00 93 1017.8
20260831094140 22 167 0.0 0.0 0.00 0.00 0.00 93 1017.8
20260831093835 22 167 0.0 0.0 0.00 0.00 0.00 93 1017.8
20260831093640 22 167 0.0 0.0 0.00 0.00 0.00 93 1017.8
20260831093140 22 167 0.0 0.0 0.00 0.00 0.00 92 1017.6
20260831092640 23 167 0.0 0.0 0.00 0.00 0.00 92 1017.6
20260831092140 23 167 0.0 1.6 0.00 0.00 0.00 91 1017.6
20260831091640 23 167 1.6 4.8 0.00 0.00 0.00 92 1017.4
20260831091140 23 188 1.6 4.8 0.00 0.00 0.00 92 1017.3
20260831090640 23 179 0.0 4.8 0.00 0.00 0.00 92 1017.4
20260831090140 23 153 0.0 3.2 0.00 0.00 0.00 93 1017.4
20260831085640 23 154 0.0 0.0 0.00 0.00 0.00 93 1017.3
20260831085140 23 155 0.0 0.0 0.00 0.00 0.00 93 1017.3
20260831084640 22 158 0.0 0.0 0.00 0.00 0.00 93 1017.3
20260831084140 22 144 0.0 0.0 0.00 0.00 0.00 94 1017.3
20260831083641 22 142 0.0 0.0 0.00 0.00 0.00 94 1017.3
20260831083140 22 124 0.0 0.0 0.00 0.00 0.00 94 1017.3
20260831082640 22 122 0.0 0.0 0.00 0.00 0.00 93 1017.3
20260831082141 22 122 0.0 0.0 0.00 0.00 0.00 93 1017.2
20260831081641 22 122 0.0 0.0 0.00 0.00 0.00 93 1017.2
20260831081141 22 121 0.0 0.0 0.00 0.00 0.00 93 1017.2
20260831080641 22 125 0.0 0.0 0.00 0.00 0.00 92 1017.2
20260831080141 22 125 0.0 0.0 0.00 0.00 0.00 92 1017.2
20260831075640 22 126 0.0 0.0 0.00 0.00 0.00 91 1017.1
20260831075141 23 126 0.0 0.0 0.00 0.00 0.00 91 1017.3
20260831074641 23 127 0.0 0.0 0.00 0.00 0.00 90 1017.3
20260831074141 23 124 1.6 0.0 0.00 0.00 0.00 91 1017.4
20260831073641 23 125 1.6 4.8 0.00 0.00 0.00 91 1017.3
20260831073141 23 112 1.6 6.4 0.00 0.00 0.00 92 1017.4
20260831072641 23 198 0.0 1.6 0.00 0.00 0.00 92 1017.4
20260831072141 23 198 0.0 1.6 0.00 0.00 0.00 92 1017.4
20260831071641 23 198 0.0 0.0 0.00 0.00 0.00 91 1017.4
20260831071141 23 198 0.0 0.0 0.00 0.00 0.00 91 1017.5
20260831070641 23 198 0.0 0.0 0.00 0.00 0.00 91 1017.5